Weather History for Mather AFB, CA

Change the Weather History Date:

Tuesday, February 11, 2014

  Actual Average Record
Temperature  
Mean Temperature 54 °F -  
Max Temperature 62 °F 55 °F 69 °F (2006)
Min Temperature 46 °F 38 °F 28 °F (2013)
Degree Days  
Heating Degree Days 11    
Growing Degree Days 4 (Base 50)    
Moisture  
Dew Point 50 °F    
Average Humidity 93    
Maximum Humidity 100    
Minimum Humidity 63    
Precipitation  
Precipitation 0.00 in - - ()
Sea Level Pressure  
Sea Level Pressure 30.21 in    
Wind  
Wind Speed 2 mph (South)    
Max Wind Speed 8 mph    
Max Gust Speed -    
Visibility 6 miles    
Events Fog    
Averages and records for this station are not official NWS values.
T = Trace of Precipitation, MM = Missing Value Source: NWS Daily Summary

Daily Weather History Graph

Daily Weather History Graph

Search for Another Location

Airport:

Trip Planner

Search our weather history database for the weather conditions in past years. The results will help you decide how hot, cold, wet, or windy it might be!

Date:

Astronomy

Feb. 11, 2014 Rise Set
Actual Time 7:00 AM PST 5:38 PM PST
Civil Twilight 6:33 AM PST 6:06 PM PST
Nautical Twilight 6:01 AM PST 6:37 PM PST
Astronomical Twilight 5:31 AM PST 7:08 PM PST
Moon 3:04 PM PST (2/11) 4:40 AM PST (2/11)
Length of Visible Light 11h 33m
Length of Day
10h 38m
Waxing Gibbous, 91% of the Moon is Illuminated
Feb 11
Waxing Gibbous
Feb 14
Full
Feb 22
Last Quarter
Mar 1
New
Mar 8
First Quarter

Hourly Weather History & Observations

Time (PST) Temp. Dew Point Humidity Pressure Visibility Wind Dir Wind Speed Gust Speed Precip Events Conditions
2:55 AM 48.2 °F 48.2 °F 100% 30.21 in 0.2 mi SE 4.6 mph - N/A Fog Fog
3:47 AM 48.2 °F 48.2 °F 100% 30.21 in 0.2 mi Calm Calm - N/A Fog Fog
4:45 AM 48.2 °F 48.2 °F 100% 30.21 in 0.2 mi Calm Calm - N/A Fog Fog
5:49 AM 48.2 °F 48.2 °F 100% 30.21 in 0.2 mi Calm Calm - N/A Fog Fog
6:46 AM 46.4 °F 46.4 °F 100% 30.20 in 0.1 mi Calm Calm - N/A   Overcast
7:46 AM 48.2 °F 48.2 °F 100% 30.22 in 0.1 mi North - - N/A Fog Fog
7:50 AM 48.2 °F 48.2 °F 100% 30.23 in 0.1 mi Calm Calm - N/A Fog Fog
8:45 AM 48.2 °F 48.2 °F 100% 30.24 in 0.1 mi East 3.5 mph - N/A Fog Fog
9:25 AM 48.2 °F 48.2 °F 100% 30.24 in 1.0 mi Calm Calm - N/A Fog Fog
9:46 AM 48.2 °F 48.2 °F 100% 30.24 in 2.0 mi Calm Calm - N/A   Overcast
10:15 AM 50.0 °F 50.0 °F 100% 30.24 in 6.0 mi Calm Calm - N/A   Mostly Cloudy
10:46 AM 51.8 °F 51.8 °F 100% 30.24 in 7.0 mi Calm Calm - N/A   Scattered Clouds
11:51 AM 57.2 °F 53.6 °F 88% 30.22 in 9.0 mi WSW 3.5 mph - N/A   Mostly Cloudy
12:52 PM 59.0 °F 53.6 °F 82% 30.19 in 10.0 mi WSW 4.6 mph - N/A   Scattered Clouds
1:46 PM 62.6 °F 53.6 °F 72% 30.20 in 10.0 mi West 8.1 mph - N/A   Scattered Clouds
2:46 PM 62.6 °F 50.0 °F 63% 30.17 in 10.0 mi Calm Calm - N/A   Scattered Clouds
3:55 PM 62.6 °F 51.8 °F 68% 30.18 in 10.0 mi WSW 4.6 mph - N/A   Mostly Cloudy
4:54 PM 60.8 °F 50.0 °F 68% 30.17 in 10.0 mi South 4.6 mph - N/A   Mostly Cloudy
5:52 PM 57.2 °F 53.6 °F 88% 30.18 in 10.0 mi SW 4.6 mph - N/A   Mostly Cloudy
6:50 PM 55.4 °F 53.6 °F 94% 30.18 in 10.0 mi SSW 3.5 mph - N/A   Scattered Clouds
7:45 PM 53.6 °F 53.6 °F 100% 30.18 in 10.0 mi ESE 3.5 mph - N/A   Scattered Clouds
8:45 PM 50.0 °F 50.0 °F 100% 30.20 in 10.0 mi Calm Calm - N/A   Scattered Clouds
9:45 PM 48.2 °F 48.2 °F 100% 30.20 in 10.0 mi ESE 3.5 mph - N/A   Scattered Clouds
10:50 PM 48.2 °F 48.2 °F 100% 30.21 in 8.0 mi ESE 4.6 mph - N/A   Scattered Clouds